This demonstration page uses our WeatherBlox Daily Observations layout. Learn more.

Hourly Observations for August 22, 2016

Temp ( °F °C ) Dew Point ( °F °C ) Humidity (%) Winds ( mph kmh ) Pressure ( in mb ) Visibility ( mi km ) Precip ( " mm )
12:54 am 00:54 Clear 63 17.2 56 13.3 78 78 SSE 7 11 30 1016 10 16.0934 0 0
1:54 am 01:54 Clear 64 17.8 56 13.3 75 75 S 8 13 29.99 1016 10 16.0934 0 0
2:54 am 02:54 Clear 64 17.8 55 12.8 73 73 S 9 15 29.98 1015 10 16.0934 0 0
3:54 am 03:54 Clear 64 17.8 56 13.3 75 75 S 10 17 29.99 1016 10 16.0934 0 0
4:54 am 04:54 Clear 63 17.2 56 13.3 78 78 S 9 15 29.98 1015 10 16.0934 0 0
5:54 am 05:54 Clear 61 16.1 55 12.8 81 81 S 9 15 29.98 1015 10 16.0934 0 0
6:54 am 06:54 Sunny 61 16.1 55 12.8 81 81 S 8 13 30 1016 10 16.0934 0 0
7:54 am 07:54 Sunny 66 18.9 56 13.3 70 70 S 13 20 30.01 1016 10 16.0934 0 0
8:54 am 08:54 Sunny 70 21.1 56 13.3 61 61 S 13 20 30.01 1016 10 16.0934 0 0
9:54 am 09:54 Sunny 75 23.9 55 12.8 50 50 SSW 21 33 30.01 1016 10 16.0934 0 0
10:54 am 10:54 Sunny 78 25.6 56 13.3 47 47 S 22 35 30 1016 10 16.0934 0 0
11:54 am 11:54 Sunny 81 27.2 58 14.4 45 45 S 20 31 29.98 1015 10 16.0934 0 0
12:54 pm 12:54 Sunny 83 28.3 58 14.4 43 43 S 21 33 29.98 1015 10 16.0934 0 0
1:54 pm 13:54 Sunny 85 29.4 60 15.6 43 43 S 20 31 29.95 1014 10 16.0934 0 0
2:54 pm 14:54 Sunny 85 29.4 60 15.6 43 43 S 22 35 29.94 1014 10 16.0934 0 0
3:54 pm 15:54 Sunny 86 30 58 14.4 39 39 S 22 35 29.93 1013 10 16.0934 0 0
4:54 pm 16:54 Sunny 86 30 57 13.9 37 37 S 25 41 29.91 1013 10 16.0934 0 0
5:54 pm 17:54 Sunny 84 28.9 58 14.4 41 41 S 21 33 29.91 1013 10 16.0934 0 0
6:54 pm 18:54 Sunny 81 27.2 59 15 47 47 S 15 24 29.91 1013 10 16.0934 0 0
7:54 pm 19:54 Sunny 78 25.6 59 15 52 52 S 13 20 29.92 1013 10 16.0934 0 0
8:54 pm 20:54 Clear 75 23.9 60 15.6 60 60 S 12 19 29.94 1014 10 16.0934 0 0
9:54 pm 21:54 Clear 73 22.8 59 15 62 62 S 12 19 29.95 1014 10 16.0934 0 0
10:54 pm 22:54 Clear 71 21.7 60 15.6 68 68 S 12 19 29.96 1014 10 16.0934 0 0
11:54 pm 23:54 Clear 71 21.7 61 16.1 71 71 S 13 20 29.95 1014 10 16.0934 0 0

Powered by AerisWeather